Weather History for Pottstown, PA

Change the Weather History Date:

Friday, October 14, 2011

  Actual Average (KRDG) Record (KRDG)
Temperature  
Mean Temperature 64 °F 54 °F  
Max Temperature 72 °F 65 °F 88 °F (1975)
Min Temperature 57 °F 44 °F 28 °F (1981)
Degree Days  
Heating Degree Days 1 11  
Month to date heating degree days 128  
Since 1 July heating degree days 207  
Cooling Degree Days 0 0  
Month to date cooling degree days 5  
Year to date cooling degree days 892  
Growing Degree Days 14 (Base 50)    
Moisture  
Dew Point 61 °F    
Average Humidity 83    
Maximum Humidity 97    
Minimum Humidity 59    
Precipitation  
Precipitation 0.67 in 0.10 in 1.25 in (1893)
Month to date precipitation 1.78  
Year to date precipitation 35.08  
Sea Level Pressure  
Sea Level Pressure 29.49 in    
Wind  
Wind Speed 4 mph (SW)    
Max Wind Speed 16 mph    
Max Gust Speed 32 mph    
Visibility 7 miles    
Events Rain , Thunderstorm    
T = Trace of Precipitation, MM = Missing Value Source: NWS Daily Summary

Daily Weather History Graph

Daily Weather History Graph

Search for Another Location

Airport:

Trip Planner

Search our weather history database for the weather conditions in past years. The results will help you decide how hot, cold, wet, or windy it might be!

Date:

Astronomy

Oct. 14, 2011 Rise Set
Actual Time 7:11 AM EDT 6:24 PM EDT
Civil Twilight 6:44 AM EDT 6:51 PM EDT
Nautical Twilight 6:12 AM EDT 7:23 PM EDT
Astronomical Twilight 5:41 AM EDT 7:54 PM EDT
Moon 7:36 PM EDT (10/14) 9:38 AM EDT (10/14)
Length of Visible Light 12h 07m
Length of Day
11h 12m
Waning Gibbous, 94% of the Moon is Illuminated
Oct 14
Waning Gibbous
Oct 19
Last Quarter
Oct 26
New
Nov 2
First Quarter
Nov 10
Full

Hourly Weather History & Observations

Time (EDT) Temp. Dew Point Humidity Pressure Visibility Wind Dir Wind Speed Gust Speed Precip Events Conditions
12:29 AM 69.8 °F 66.2 °F 88% 29.60 in 5.0 mi Variable 3.5 mph - N/A   Overcast
12:54 AM 70.0 °F 66.9 °F 90% 29.59 in 8.0 mi Variable 4.6 mph - N/A   Overcast
1:07 AM 69.8 °F 66.2 °F 88% 29.59 in 8.0 mi Variable 3.5 mph - N/A   Overcast
1:54 AM 70.0 °F 66.9 °F 90% 29.57 in 3.0 mi Calm Calm - 0.04 in Rain Heavy Rain
1:57 AM 69.8 °F 66.2 °F 88% 29.58 in 1.8 mi Calm Calm - 0.03 in Rain Heavy Rain
2:05 AM 69.8 °F 66.2 °F 88% 29.57 in 2.0 mi ESE 3.5 mph - 0.05 in Rain Light Rain
2:12 AM 69.8 °F 66.2 °F 88% 29.58 in 7.0 mi Calm Calm - 0.05 in Rain Light Rain
2:29 AM 69.8 °F 66.2 °F 88% 29.58 in 5.0 mi SSW 6.9 mph - 0.06 in Rain Light Rain
2:54 AM 69.1 °F 66.9 °F 93% 29.56 in 8.0 mi South 4.6 mph - 0.06 in   Overcast
3:06 AM 69.8 °F 66.2 °F 88% 29.56 in 8.0 mi Calm Calm - N/A   Overcast
3:54 AM 69.1 °F 66.9 °F 93% 29.55 in 8.0 mi South 3.5 mph - N/A   Overcast
4:54 AM 68.0 °F 66.0 °F 93% 29.54 in 7.0 mi South 3.5 mph - N/A   Unknown
5:54 AM 66.9 °F 66.0 °F 97% 29.54 in 7.0 mi Calm Calm - N/A   Unknown
7:54 AM 66.9 °F 64.9 °F 93% 29.52 in 5.0 mi Calm Calm - N/A   Clear
8:54 AM 66.9 °F 64.9 °F 93% 29.51 in 5.0 mi Calm Calm - N/A   Mostly Cloudy
9:06 AM 66.2 °F 64.4 °F 94% 29.51 in 5.0 mi Calm Calm - N/A   Scattered Clouds
9:13 AM 66.2 °F 64.4 °F 94% 29.51 in 5.0 mi Calm Calm - N/A   Mostly Cloudy
9:54 AM 68.0 °F 64.9 °F 90% 29.49 in 6.0 mi Calm Calm - N/A   Mostly Cloudy
10:11 AM 68.0 °F 64.4 °F 88% 29.49 in 6.0 mi Variable 3.5 mph - N/A   Scattered Clouds
10:44 AM 69.8 °F 64.4 °F 83% 29.49 in 6.0 mi SSE 3.5 mph - N/A   Mostly Cloudy
10:54 AM 69.1 °F 64.9 °F 87% 29.47 in 6.0 mi Variable 4.6 mph - N/A   Mostly Cloudy
11:11 AM 69.8 °F 64.4 °F 83% 29.47 in 6.0 mi Variable 3.5 mph - N/A   Overcast
11:45 AM 71.6 °F 64.4 °F 78% 29.45 in 7.0 mi Variable 6.9 mph - N/A   Mostly Cloudy
11:54 AM 71.1 °F 64.9 °F 81% 29.44 in 7.0 mi Variable 6.9 mph - N/A   Mostly Cloudy
12:54 PM 71.1 °F 62.1 °F 73% 29.41 in 10.0 mi South 10.4 mph 18.4 mph N/A Thunderstorm Overcast
1:09 PM 69.8 °F 60.8 °F 73% 29.44 in 1.0 mi SSW 16.1 mph 32.2 mph 0.15 in Rain , Thunderstorm Light Thunderstorms and Rain
1:15 PM 66.2 °F 59.0 °F 78% 29.42 in 0.5 mi SW 6.9 mph 32.2 mph 0.24 in Rain , Thunderstorm Heavy Thunderstorms and Rain
1:21 PM 64.4 °F 57.2 °F 77% 29.42 in 1.0 mi South 5.8 mph 16.1 mph 0.30 in Rain , Thunderstorm Heavy Thunderstorms and Rain
1:35 PM 62.6 °F 57.2 °F 82% 29.42 in 0.8 mi South 5.8 mph - 0.49 in Rain , Thunderstorm Heavy Thunderstorms and Rain
1:45 PM 60.8 °F 59.0 °F 94% 29.41 in 1.2 mi Variable 3.5 mph - 0.57 in Rain , Thunderstorm Heavy Thunderstorms and Rain
1:51 PM 60.8 °F 59.0 °F 94% 29.41 in 3.0 mi Calm Calm - 0.57 in Rain Light Rain
1:54 PM 61.0 °F 59.0 °F 93% 29.40 in 7.0 mi Calm Calm - 0.57 in Rain Light Rain
1:57 PM 60.8 °F 59.0 °F 94% 29.41 in 10.0 mi Calm Calm - 0.00 in Rain , Thunderstorm Light Thunderstorms and Rain
2:30 PM 64.4 °F 60.8 °F 88% 29.40 in 10.0 mi SW 9.2 mph - 0.00 in   Mostly Cloudy
2:45 PM 64.4 °F 59.0 °F 83% 29.40 in 10.0 mi WSW 12.7 mph 19.6 mph 0.00 in Rain Light Rain
2:54 PM 64.9 °F 57.9 °F 78% 29.39 in 10.0 mi WSW 10.4 mph 27.6 mph 0.00 in Rain Light Rain
3:02 PM 64.4 °F 57.2 °F 77% 29.40 in 10.0 mi West 12.7 mph 26.5 mph 0.00 in Rain Light Rain
3:54 PM 66.9 °F 57.0 °F 70% 29.41 in 10.0 mi West 12.7 mph 20.7 mph 0.00 in   Mostly Cloudy
4:08 PM 64.4 °F 55.4 °F 73% 29.42 in 10.0 mi West 10.4 mph 19.6 mph N/A   Mostly Cloudy
4:54 PM 63.0 °F 53.1 °F 70% 29.44 in 10.0 mi West 9.2 mph 19.6 mph N/A   Overcast
5:54 PM 63.0 °F 54.0 °F 72% 29.46 in 10.0 mi West 5.8 mph - N/A   Overcast
6:54 PM 61.0 °F 53.1 °F 75% 29.48 in 10.0 mi SW 3.5 mph - N/A   Scattered Clouds
7:54 PM 61.0 °F 48.9 °F 64% 29.52 in 10.0 mi WNW 13.8 mph 26.5 mph N/A   Overcast
8:54 PM 57.9 °F 48.9 °F 72% 29.54 in 10.0 mi West 4.6 mph - 0.00 in   Scattered Clouds
9:54 PM 57.0 °F 48.0 °F 72% 29.57 in 10.0 mi WSW 4.6 mph - N/A   Clear
10:54 PM 57.0 °F 45.0 °F 64% 29.58 in 10.0 mi SW 6.9 mph - N/A   Clear
11:54 PM 57.0 °F 43.0 °F 59% 29.60 in 10.0 mi WSW 11.5 mph 21.9 mph N/A   Clear